[[{"header":{"parameterUnit":"m.s-1","parameterCategory":1,"la1":30.2991,"la2":30.254,"lo1":-89.0895,"lo2":-89.0444,"dy":0.0017,"dx":0.0017,"nx":28,"ny":28,"refTime":"2023-06-18T21:00:00:Z","depth":0,"parameterNumber":2,"parameterNumberName":"U-component_of_WINDS"},"data":[0,0,0,0,0,0,0,0,0,0,0,0,0,0,0,0,0,0,0,0,0,0,0,0,0,0,0,0,0,0,0,0,0,0,0,0,0,0,0,0,0,0,0,0,0,0,0,0,0,0,0,0,0,0,0,0,0,0,5.5834,5.5835,0,5.595,5.5952,5.5953,5.5884,5.5881,5.5878,5.5875,5.5992,5.5998,5.6004,0,0,0,0,0,0,0,0,0,0,0,0,0,5.5552,5.5557,5.5834,5.5835,5.5837,5.595,5.5952,5.5953,5.5885,5.5881,5.5877,5.5873,5.599,5.5997,5.6005,0,0,0,0,0,0,0,0,0,0,0,0,0,5.5672,5.5559,5.5834,5.5816,5.5816,5.595,5.5952,5.5954,5.5886,5.5881,5.5876,5.5871,5.5988,5.5997,5.6006,5.6163,0,0,5.6034,5.6038,0,0,0,0,0,0,0,0,5.5665,5.5682,5.5818,5.5818,5.5818,5.5898,5.5895,5.6024,5.5887,5.5859,5.5875,5.5869,5.5965,5.5975,5.6008,5.6168,5.6173,5.6035,5.6041,5.6045,5.6047,0,0,0,0,0,0,0,5.5657,5.5677,5.588,5.582,5.582,5.5803,5.5814,5.5919,5.5938,5.5861,5.5857,5.5872,5.5964,5.5999,5.601,5.6175,5.6035,5.6043,5.6049,5.6052,5.647,5.6476,0,0,0,0,0,0,5.565,5.567,5.5876,5.5883,5.5728,5.5812,5.5825,5.5877,5.5937,5.5941,5.5876,5.5868,5.5986,5.6,5.6014,5.6202,5.6045,5.6053,5.6059,5.6465,5.6471,5.6477,0,0,0,0,0,0,5.5644,5.5669,5.5871,5.5776,5.58,5.5822,5.5881,5.5882,5.5917,5.5948,5.5951,5.5909,5.5982,5.6001,5.6127,5.6205,5.6058,5.6066,5.6458,5.6467,5.6474,5.6578,0,0,0,0,0,0,5.5636,5.5667,5.5727,5.5778,5.5806,5.5982,5.5886,5.5888,5.5934,5.5925,5.5979,5.5984,5.598,5.6113,5.6136,5.6215,5.6073,5.6451,5.6462,5.6472,5.6568,5.6589,5.6607,0,0,0,0,0,5.5626,5.5751,5.573,5.5755,5.5881,5.5987,5.6003,5.5996,5.5941,5.6001,5.6021,5.5982,5.6193,5.6126,5.6151,5.6235,5.6446,5.6459,5.6471,5.6559,5.6585,5.6607,0,0,0,0,0,0,5.5707,5.5757,5.5735,5.5879,5.593,5.5975,5.605,5.6024,5.609,5.6079,5.6068,5.6081,5.6212,5.6236,5.6161,5.639,5.6311,5.6329,5.6369,5.6394,5.6413,5.6404,5.6081,0,0,0,0,0,5.5742,5.5825,5.5864,5.5987,5.6014,5.6028,5.6074,5.6066,5.6117,5.6137,5.6166,5.6217,5.6295,5.6346,5.6419,5.6572,5.6583,5.6642,5.6661,5.6677,5.6692,5.6775,5.6802,5.6518,5.6518,5.6518,0,0,5.5814,5.5852,5.5904,5.6005,5.6042,5.6128,5.6046,5.614,5.6203,5.6151,5.6271,5.6295,5.6351,5.6491,5.6554,5.6515,5.6774,5.6693,5.6706,5.6712,5.6791,5.6817,5.6841,5.6527,5.6525,5.6524,0,0,5.5989,5.6027,5.6134,5.6174,5.6233,5.6243,5.6269,5.6319,5.6333,5.6454,5.6417,5.6492,5.6626,5.6668,5.6707,5.6901,5.6868,5.6926,5.7027,5.7108,5.7131,5.715,5.7219,5.7244,5.6941,5.6941,5.6942,0,5.6071,5.6199,5.6192,5.6289,5.6334,5.6294,5.6402,5.6441,5.6521,5.6553,5.6509,5.6678,5.6713,5.6862,5.691,5.6943,5.6972,5.6918,5.7128,5.7148,5.7166,5.7232,5.7258,5.6948,5.6947,5.6947,5.6946,0,5.6297,5.6386,5.6466,5.6545,5.66,5.6702,5.6711,5.6767,5.6755,5.6769,5.6893,5.6934,5.7015,5.705,5.7039,5.7199,5.7173,5.7129,5.7049,5.72,5.7261,5.7286,5.6957,5.6955,5.6953,5.6951,0,0,5.6522,5.6599,5.6628,5.6664,5.6728,5.6797,5.6898,5.6979,5.7027,5.7084,5.7168,5.7285,5.7245,5.7289,5.7282,5.7354,5.7505,5.7301,5.7302,5.7336,5.7684,5.7715,5.7744,5.7485,5.7489,5.7493,5.7679,0,5.6701,5.6878,5.6876,5.704,5.7122,5.7086,5.7174,5.7223,5.724,5.7312,5.733,5.7413,5.7355,5.7381,5.745,5.7472,5.7574,5.7459,5.7562,5.7565,5.7547,5.7776,5.7809,5.7982,5.7702,5.7707,5.771,0,5.6931,5.6998,5.717,5.7223,5.7258,5.7337,5.7411,5.7481,5.7536,5.7544,5.7595,5.7577,5.768,5.7599,5.7741,5.7663,5.7705,5.7723,5.7729,5.7737,5.7645,5.7788,5.8037,5.8062,5.7747,5.7744,5.7742,0,5.7078,5.721,5.7331,5.7363,5.7428,5.7485,5.7514,5.7565,5.7614,5.7679,5.7711,5.7787,5.7829,5.7889,5.7892,5.7833,5.8035,5.7955,5.8043,5.8044,5.8085,5.8082,5.8343,5.8117,5.8116,5.8116,5.8115,0,5.7275,5.7382,5.7397,5.7471,5.759,5.7588,5.7705,5.773,5.7776,5.7853,5.7828,5.7901,5.7903,5.7978,5.7982,5.8099,5.8118,5.8126,5.8126,5.8127,5.8126,5.8153,5.8141,5.8122,5.8121,5.812,5.8118,0,5.7457,5.7472,5.7601,5.7653,5.7669,5.7754,5.7799,5.7869,5.7885,5.7984,5.8007,5.8031,5.8119,5.813,5.8232,5.8234,5.8374,5.8362,5.8356,5.8353,5.8441,5.8432,5.8726,5.8764,5.8515,5.8517,5.8519,0,5.7582,5.7663,5.7725,5.7776,5.7809,5.7891,5.7942,5.7944,5.7997,5.8068,5.813,5.8216,5.8283,5.8425,5.8452,5.853,5.8518,5.8616,5.8529,5.8529,5.8518,5.8512,5.852,5.8632,5.8635,5.8637,5.8639,0,5.78,5.7804,5.7878,5.7957,5.8018,5.8079,5.8136,5.818,5.8189,5.8251,5.8341,5.8394,5.8499,5.8584,5.8662,5.8692,5.8667,5.8666,5.8691,5.8692,5.8685,5.8689,5.84,5.8659,5.8657,5.8655,5.8654,5.8653,5.7956,5.8027,5.8082,5.8166,5.821,5.8265,5.8334,5.836,5.8435,5.8521,5.8518,5.8617,5.8672,5.8774,5.881,5.8887,5.8855,5.889,5.8899,5.8907,5.8915,5.8675,5.8902,5.8901,5.8901,5.89,5.89,0,5.8172,5.8207,5.8284,5.8366,5.8433,5.8406,5.8469,5.8525,5.8613,5.8667,5.8735,5.8839,5.8922,5.8957,5.9038,5.9093,5.9084,5.9115,5.9109,5.9117,5.894,5.891,5.9121,5.9121,5.9121,5.9121,5.9121,5.9121,5.8292,5.8411,5.8422,5.8563,5.8596,5.8694,5.8732,5.8782,5.8825,5.8943,5.9012,5.9034,5.9081,5.9166,5.9241,5.9249,5.9279,5.9314,5.9317,5.9151,5.9129,5.9107,5.9079,5.9321,5.9322,5.9486,5.9488,5.9489]},{"header":{"parameterUnit":"m.s-1","parameterCategory":1,"la1":30.2991,"la2":30.254,"lo1":-89.0895,"lo2":-89.0444,"dy":0.0017,"dx":0.0017,"nx":28,"ny":28,"refTime":"2023-06-18T21:00:00:Z","depth":0,"parameterNumber":3,"parameterNumberName":"V-component_of_WINDS"},"data":[0,0,0,0,0,0,0,0,0,0,0,0,0,0,0,0,0,0,0,0,0,0,0,0,0,0,0,0,0,0,0,0,0,0,0,0,0,0,0,0,0,0,0,0,0,0,0,0,0,0,0,0,0,0,0,0,0,0,0.3271,0.3271,0,0.3296,0.3296,0.3296,0.329,0.329,0.3289,0.3289,0.3315,0.3316,0.3318,0,0,0,0,0,0,0,0,0,0,0,0,0,0.3217,0.3218,0.3271,0.3271,0.3271,0.3296,0.3296,0.3297,0.329,0.329,0.3289,0.3289,0.3315,0.3316,0.3318,0,0,0,0,0,0,0,0,0,0,0,0,0,0.3241,0.3219,0.3271,0.3271,0.3271,0.3296,0.3296,0.3297,0.3291,0.329,0.3289,0.3288,0.3314,0.3316,0.3318,0.3343,0,0,0.3323,0.3324,0,0,0,0,0,0,0,0,0.324,0.3243,0.3271,0.3271,0.3271,0.3289,0.3287,0.3312,0.3291,0.3283,0.3289,0.3288,0.3307,0.331,0.3316,0.3345,0.3346,0.3323,0.3324,0.3325,0.3326,0,0,0,0,0,0,0,0.3238,0.3242,0.3281,0.3271,0.3272,0.327,0.3273,0.3292,0.3299,0.3284,0.3283,0.3287,0.3307,0.3314,0.3316,0.3346,0.3323,0.3325,0.3326,0.3327,0.3397,0.3398,0,0,0,0,0,0,0.3236,0.3241,0.328,0.3281,0.3254,0.3272,0.3275,0.3284,0.3299,0.33,0.3287,0.3286,0.3312,0.3314,0.3317,0.3349,0.3325,0.3327,0.3328,0.3397,0.3398,0.3398,0,0,0,0,0,0,0.3235,0.324,0.3279,0.3261,0.3266,0.3273,0.3284,0.3285,0.3292,0.3301,0.3303,0.3293,0.3311,0.3315,0.3337,0.3349,0.3328,0.3329,0.3396,0.3397,0.3398,0.3411,0,0,0,0,0,0,0.3234,0.3239,0.3249,0.3261,0.3267,0.3298,0.3285,0.3286,0.3295,0.3294,0.3307,0.3309,0.3311,0.3334,0.3339,0.3351,0.3331,0.3394,0.3396,0.3398,0.3409,0.3412,0.3415,0,0,0,0,0,0.3232,0.3252,0.325,0.3254,0.3279,0.3299,0.3302,0.3304,0.3296,0.3306,0.3312,0.3308,0.3347,0.3337,0.3342,0.3355,0.3394,0.3396,0.3397,0.3408,0.3412,0.3415,0,0,0,0,0,0,0.3241,0.3253,0.3251,0.3276,0.3286,0.3298,0.331,0.3308,0.3321,0.3319,0.3321,0.3324,0.3347,0.3353,0.3341,0.338,0.3369,0.3372,0.3376,0.3379,0.3382,0.338,0.3332,0,0,0,0,0,0.3246,0.3261,0.3271,0.3291,0.3297,0.3302,0.3311,0.3312,0.3323,0.3327,0.3335,0.3346,0.336,0.337,0.3384,0.341,0.3413,0.3421,0.3424,0.3427,0.3429,0.3444,0.3448,0.3405,0.3405,0.3405,0,0,0.3256,0.3265,0.3274,0.3293,0.3302,0.3317,0.3306,0.3323,0.3334,0.333,0.3351,0.3357,0.3369,0.3393,0.3404,0.3399,0.3442,0.3429,0.3431,0.3432,0.3446,0.345,0.3454,0.3406,0.3406,0.3405,0,0,0.3283,0.3291,0.3309,0.3317,0.333,0.3333,0.3338,0.335,0.3353,0.3375,0.3372,0.3385,0.3411,0.342,0.3428,0.3458,0.3455,0.3462,0.3477,0.3491,0.3494,0.3497,0.3508,0.3512,0.3465,0.3465,0.3465,0,0.3294,0.3317,0.3319,0.3336,0.3344,0.3341,0.3359,0.3367,0.3384,0.339,0.3384,0.3415,0.3423,0.345,0.3457,0.3463,0.3469,0.3461,0.3494,0.3497,0.3499,0.351,0.3514,0.3465,0.3465,0.3465,0.3465,0,0.333,0.3346,0.336,0.3375,0.3386,0.3403,0.3408,0.3418,0.3418,0.3422,0.3444,0.3454,0.347,0.3476,0.3476,0.3502,0.3499,0.3493,0.3482,0.3504,0.3514,0.3518,0.3467,0.3466,0.3466,0.3466,0,0,0.3364,0.338,0.3385,0.3393,0.3406,0.3418,0.3436,0.3451,0.346,0.3472,0.3487,0.3508,0.3503,0.3512,0.3513,0.3525,0.3549,0.3518,0.3518,0.3524,0.3579,0.3583,0.3588,0.3547,0.3547,0.3548,0.3578,0,0.3392,0.3423,0.3425,0.3453,0.3468,0.3464,0.348,0.349,0.3494,0.3508,0.3513,0.3528,0.352,0.3525,0.3537,0.3543,0.356,0.3541,0.3561,0.3562,0.3558,0.3593,0.3598,0.3625,0.3582,0.3582,0.3583,0,0.3429,0.3442,0.3471,0.3483,0.3489,0.3503,0.3517,0.353,0.3541,0.3544,0.3554,0.3553,0.3571,0.3559,0.3584,0.3572,0.358,0.3584,0.3585,0.3587,0.3574,0.3597,0.3634,0.3639,0.3589,0.3589,0.3588,0,0.3451,0.3475,0.3496,0.3502,0.3516,0.3526,0.3532,0.3543,0.3552,0.3565,0.3571,0.3585,0.3593,0.3605,0.3608,0.3599,0.3634,0.3622,0.3636,0.3636,0.3644,0.3644,0.3684,0.3649,0.3649,0.3649,0.3649,0,0.3482,0.3501,0.3506,0.3519,0.3539,0.3541,0.3562,0.3567,0.3577,0.3591,0.3589,0.3602,0.3605,0.3619,0.3622,0.3643,0.3646,0.3649,0.3649,0.3649,0.3649,0.3655,0.3653,0.365,0.3649,0.3649,0.3649,0,0.351,0.3515,0.3537,0.3549,0.3552,0.3566,0.3576,0.3589,0.3593,0.3611,0.3615,0.3622,0.3638,0.3642,0.3662,0.3664,0.3688,0.3687,0.3684,0.3684,0.3699,0.3698,0.3745,0.3751,0.3711,0.3712,0.3712,0,0.353,0.3544,0.3557,0.3566,0.3573,0.3588,0.3597,0.36,0.361,0.3624,0.3635,0.3651,0.3664,0.369,0.3697,0.3712,0.3711,0.3726,0.3713,0.3712,0.3711,0.3711,0.3712,0.3729,0.3729,0.373,0.373,0,0.3565,0.3567,0.358,0.3595,0.3606,0.3618,0.3629,0.3637,0.3641,0.3652,0.3669,0.3679,0.3698,0.3715,0.373,0.3736,0.3734,0.3734,0.3738,0.3738,0.3737,0.3738,0.3692,0.3733,0.3733,0.3732,0.3732,0.3732,0.359,0.3603,0.3613,0.3629,0.3637,0.3648,0.366,0.3666,0.368,0.3696,0.3697,0.3715,0.3726,0.3746,0.3753,0.3768,0.3763,0.3769,0.3771,0.3772,0.3774,0.3734,0.377,0.377,0.377,0.377,0.377,0,0.3625,0.3632,0.3646,0.3662,0.3674,0.367,0.3683,0.3693,0.3709,0.3719,0.3732,0.3751,0.3767,0.3775,0.379,0.38,0.38,0.3804,0.3804,0.3805,0.3777,0.3772,0.3805,0.3805,0.3805,0.3805,0.3805,0.3805,0.3645,0.3666,0.3669,0.3694,0.3701,0.3718,0.3726,0.3735,0.3744,0.3765,0.3778,0.3783,0.3793,0.3809,0.3823,0.3825,0.3831,0.3836,0.3838,0.3811,0.3807,0.3804,0.3799,0.3837,0.3837,0.3865,0.3865,0.3866]}]]